[[{"header":{"parameterUnit":"m.s-1","parameterCategory":1,"la1":30.2991,"la2":30.254,"lo1":-89.0895,"lo2":-89.0444,"dx":0.0017,"dy":0.0017,"nx":28,"ny":28,"refTime":"2022-12-30T15:00:00:Z","depth":0,"parameterNumber":2,"parameterNumberName":"U-component_of_WINDS"},"data":[0,0,0,0,0,0,0,0,0,0,0,0,0,0,0,0,0,0,0,0,0,0,0,0,0,0,0,0,0,0,0,0,0,0,0,0,0,0,0,0,0,0,0,0,0,0,0,0,0,0,0,0,0,0,0,0,0,0,-5.1558,-5.1558,0,-5.1579,-5.158,-5.158,-5.1495,-5.1492,-5.149,-5.1487,-5.1509,-5.1512,-5.1515,0,0,0,0,0,0,0,0,0,0,0,0,0,-5.1445,-5.1447,-5.1558,-5.1558,-5.1559,-5.1579,-5.158,-5.158,-5.1495,-5.1492,-5.1489,-5.1486,-5.1508,-5.1512,-5.1515,0,0,0,0,0,0,0,0,0,0,0,0,0,-5.1483,-5.1448,-5.1558,-5.1519,-5.1515,-5.1579,-5.158,-5.158,-5.1496,-5.1492,-5.1488,-5.1485,-5.1507,-5.1511,-5.1516,-5.1618,0,0,-5.1529,-5.1531,0,0,0,0,0,0,0,0,-5.1481,-5.1487,-5.1524,-5.1522,-5.1518,-5.1531,-5.1548,-5.1593,-5.1497,-5.1503,-5.1487,-5.1483,-5.1519,-5.1523,-5.1535,-5.1619,-5.162,-5.1529,-5.1532,-5.1534,-5.1535,0,0,0,0,0,0,0,-5.1478,-5.1486,-5.1566,-5.1525,-5.1521,-5.15,-5.1502,-5.1556,-5.1532,-5.1502,-5.1496,-5.15,-5.1517,-5.1531,-5.1535,-5.1621,-5.1529,-5.1533,-5.1536,-5.1538,-5.1791,-5.1795,0,0,0,0,0,0,-5.1481,-5.1484,-5.1566,-5.1567,-5.149,-5.1506,-5.1507,-5.153,-5.1531,-5.1528,-5.1503,-5.1496,-5.1525,-5.153,-5.1535,-5.1655,-5.1534,-5.1538,-5.1541,-5.1787,-5.1792,-5.1796,0,0,0,0,0,0,-5.1479,-5.1489,-5.1565,-5.1524,-5.1532,-5.1511,-5.1539,-5.1533,-5.1546,-5.1532,-5.1527,-5.1522,-5.1522,-5.1529,-5.1598,-5.1654,-5.154,-5.1544,-5.1782,-5.1789,-5.1794,-5.1896,0,0,0,0,0,0,-5.1476,-5.1488,-5.1527,-5.1525,-5.1535,-5.1628,-5.1542,-5.1536,-5.1554,-5.1545,-5.1548,-5.1545,-5.152,-5.1592,-5.1603,-5.1658,-5.1548,-5.1777,-5.1785,-5.1792,-5.1887,-5.1905,-5.192,0,0,0,0,0,-5.1472,-5.1554,-5.1529,-5.154,-5.1582,-5.1631,-5.1636,-5.1606,-5.1559,-5.1598,-5.1589,-5.1545,-5.1647,-5.16,-5.1611,-5.1669,-5.1773,-5.1783,-5.1792,-5.188,-5.1901,-5.1919,0,0,0,0,0,0,-5.1562,-5.1553,-5.1525,-5.161,-5.1622,-5.1617,-5.1664,-5.1629,-5.1654,-5.1645,-5.1606,-5.1608,-5.1684,-5.1684,-5.1631,-5.1769,-5.1702,-5.1714,-5.1766,-5.1786,-5.1802,-5.1799,-5.1551,0,0,0,0,0,-5.1592,-5.1633,-5.1623,-5.1698,-5.1706,-5.1685,-5.1705,-5.168,-5.1691,-5.1696,-5.1692,-5.1704,-5.1739,-5.1763,-5.1794,-5.1888,-5.1887,-5.1933,-5.195,-5.1963,-5.1973,-5.2023,-5.2043,-5.1827,-5.1827,-5.1826,0,0,-5.1654,-5.1654,-5.1682,-5.1717,-5.1723,-5.1766,-5.1689,-5.1738,-5.1769,-5.1703,-5.1768,-5.1766,-5.1777,-5.186,-5.1896,-5.1862,-5.2033,-5.1975,-5.1985,-5.1988,-5.2034,-5.2055,-5.2073,-5.1833,-5.1832,-5.1831,0,0,-5.1788,-5.1793,-5.1856,-5.1865,-5.1876,-5.1861,-5.1877,-5.1878,-5.1874,-5.1939,-5.189,-5.1928,-5.1989,-5.1999,-5.2012,-5.2153,-5.2113,-5.2165,-5.2248,-5.2297,-5.2314,-5.2329,-5.2378,-5.2397,-5.2175,-5.2176,-5.2176,0,-5.1863,-5.1925,-5.1893,-5.1945,-5.1962,-5.1906,-5.197,-5.198,-5.2001,-5.2014,-5.1976,-5.2052,-5.2056,-5.2139,-5.2174,-5.2187,-5.2203,-5.2163,-5.2314,-5.2329,-5.2342,-5.2389,-5.2408,-5.2181,-5.2181,-5.218,-5.218,0,-5.2017,-5.2062,-5.2112,-5.2134,-5.2156,-5.2214,-5.2191,-5.2218,-5.2193,-5.2183,-5.225,-5.2253,-5.2284,-5.2303,-5.2279,-5.2384,-5.2363,-5.2321,-5.2252,-5.2369,-5.2412,-5.243,-5.219,-5.2188,-5.2186,-5.2185,0,0,-5.2206,-5.2211,-5.223,-5.2239,-5.2249,-5.2282,-5.2339,-5.237,-5.2393,-5.2411,-5.2456,-5.2511,-5.2472,-5.2487,-5.2464,-5.2508,-5.2619,-5.246,-5.2459,-5.2488,-5.2734,-5.2765,-5.2786,-5.2594,-5.2597,-5.26,-5.2733,0,-5.2336,-5.2431,-5.2405,-5.25,-5.2541,-5.249,-5.2539,-5.255,-5.2543,-5.2577,-5.2569,-5.2607,-5.2554,-5.2563,-5.2604,-5.2596,-5.2667,-5.2587,-5.2635,-5.2637,-5.2632,-5.2808,-5.284,-5.2966,-5.275,-5.2753,-5.2755,0,-5.25,-5.2525,-5.2624,-5.2628,-5.2644,-5.2688,-5.2715,-5.2748,-5.2761,-5.2753,-5.2771,-5.274,-5.2795,-5.2729,-5.2806,-5.2751,-5.277,-5.277,-5.2774,-5.2776,-5.2701,-5.2813,-5.3005,-5.3023,-5.2781,-5.2779,-5.2777,0,-5.2626,-5.2684,-5.2751,-5.2761,-5.2768,-5.28,-5.2804,-5.2813,-5.2834,-5.2858,-5.2871,-5.2902,-5.2918,-5.2942,-5.292,-5.2874,-5.3,-5.2932,-5.2994,-5.2995,-5.3021,-5.3019,-5.3217,-5.3037,-5.3037,-5.3036,-5.3036,0,-5.2773,-5.2836,-5.2808,-5.2849,-5.2918,-5.2888,-5.2958,-5.2956,-5.2965,-5.3005,-5.2964,-5.3002,-5.2971,-5.3008,-5.2991,-5.3057,-5.3065,-5.306,-5.3054,-5.3062,-5.3063,-5.3072,-5.3062,-5.3041,-5.304,-5.3039,-5.3038,0,-5.2924,-5.2908,-5.2978,-5.2979,-5.2981,-5.3032,-5.3033,-5.3071,-5.3062,-5.3113,-5.3124,-5.311,-5.315,-5.3132,-5.3174,-5.3163,-5.3247,-5.3231,-5.3243,-5.3238,-5.33,-5.3294,-5.3509,-5.3535,-5.3341,-5.3343,-5.3344,0,-5.3018,-5.3065,-5.3072,-5.3096,-5.3103,-5.3143,-5.3164,-5.3138,-5.3161,-5.3181,-5.3217,-5.3254,-5.3282,-5.335,-5.3343,-5.3376,-5.3359,-5.3432,-5.3363,-5.337,-5.3358,-5.3355,-5.3359,-5.3445,-5.3447,-5.3449,-5.3451,0,-5.3186,-5.3176,-5.3208,-5.3239,-5.3265,-5.3288,-5.3306,-5.3329,-5.3303,-5.3332,-5.3374,-5.3396,-5.344,-5.3477,-5.3507,-5.3511,-5.3477,-5.3473,-5.3489,-5.3496,-5.35,-5.3498,-5.3278,-5.3468,-5.3466,-5.3465,-5.3464,-5.3463,-5.3309,-5.3349,-5.336,-5.3398,-5.341,-5.3429,-5.3465,-5.3461,-5.3495,-5.3529,-5.3512,-5.356,-5.3573,-5.3609,-5.3619,-5.3656,-5.3627,-5.365,-5.3656,-5.3661,-5.3669,-5.3497,-5.3662,-5.3661,-5.3661,-5.366,-5.366,0,-5.3473,-5.3479,-5.3514,-5.3542,-5.3572,-5.3539,-5.3559,-5.3586,-5.3629,-5.3644,-5.3673,-5.3721,-5.3758,-5.3756,-5.379,-5.382,-5.3806,-5.383,-5.3826,-5.3828,-5.3694,-5.3676,-5.3841,-5.3841,-5.3841,-5.3841,-5.3841,-5.3841,-5.3562,-5.3627,-5.3619,-5.369,-5.3695,-5.3742,-5.3756,-5.3774,-5.3786,-5.3842,-5.3872,-5.3871,-5.3879,-5.3914,-5.3946,-5.3945,-5.3958,-5.3988,-5.3981,-5.3855,-5.3837,-5.382,-5.3803,-5.3992,-5.3992,-5.4111,-5.4112,-5.4113]},{"header":{"parameterUnit":"m.s-1","parameterCategory":1,"la1":30.2991,"la2":30.254,"lo1":-89.0895,"lo2":-89.0444,"dx":0.0017,"dy":0.0017,"nx":28,"ny":28,"refTime":"2022-12-30T15:00:00:Z","depth":0,"parameterNumber":3,"parameterNumberName":"V-component_of_WINDS"},"data":[0,0,0,0,0,0,0,0,0,0,0,0,0,0,0,0,0,0,0,0,0,0,0,0,0,0,0,0,0,0,0,0,0,0,0,0,0,0,0,0,0,0,0,0,0,0,0,0,0,0,0,0,0,0,0,0,0,0,0.8757,0.8757,0,0.8727,0.8726,0.8726,0.873,0.873,0.8731,0.8731,0.8697,0.8696,0.8694,0,0,0,0,0,0,0,0,0,0,0,0,0,0.8819,0.8817,0.8757,0.8757,0.8756,0.8727,0.8726,0.8726,0.873,0.873,0.8731,0.8731,0.8697,0.8696,0.8694,0,0,0,0,0,0,0,0,0,0,0,0,0,0.879,0.8817,0.8757,0.8755,0.8754,0.8727,0.8726,0.8726,0.8729,0.873,0.8731,0.8732,0.8698,0.8696,0.8694,0.8666,0,0,0.8688,0.8687,0,0,0,0,0,0,0,0,0.8792,0.8788,0.8756,0.8755,0.8754,0.8733,0.8735,0.8705,0.8729,0.8739,0.8731,0.8732,0.8708,0.8705,0.8698,0.8664,0.8663,0.8687,0.8686,0.8685,0.8685,0,0,0,0,0,0,0,0.8794,0.8789,0.8745,0.8755,0.8754,0.8755,0.8752,0.873,0.8719,0.8738,0.8738,0.8735,0.8708,0.87,0.8697,0.8662,0.8687,0.8686,0.8684,0.8683,0.8608,0.8607,0,0,0,0,0,0,0.8797,0.8791,0.8746,0.8744,0.8775,0.8753,0.875,0.8739,0.872,0.8718,0.8734,0.8735,0.8703,0.8699,0.8696,0.8664,0.8685,0.8683,0.8682,0.8608,0.8607,0.8607,0,0,0,0,0,0,0.8798,0.8793,0.8747,0.8768,0.8762,0.8752,0.8739,0.8738,0.873,0.8717,0.8715,0.8728,0.8703,0.8699,0.8674,0.8662,0.8682,0.868,0.8609,0.8608,0.8607,0.8598,0,0,0,0,0,0,0.88,0.8793,0.8782,0.8767,0.8761,0.8726,0.8738,0.8737,0.8726,0.8727,0.871,0.8708,0.8704,0.8677,0.8672,0.866,0.8679,0.861,0.8609,0.8607,0.8599,0.8597,0.8594,0,0,0,0,0,0.8802,0.878,0.8782,0.8776,0.8747,0.8725,0.8722,0.8718,0.8725,0.8715,0.8707,0.8709,0.8665,0.8675,0.8669,0.8656,0.8611,0.8609,0.8607,0.86,0.8597,0.8595,0,0,0,0,0,0,0.8791,0.8777,0.8779,0.8752,0.874,0.8726,0.8712,0.8714,0.8699,0.87,0.8695,0.8691,0.8667,0.8659,0.867,0.8629,0.8639,0.8636,0.8635,0.8632,0.863,0.8632,0.8677,0,0,0,0,0,0.8786,0.877,0.8759,0.8735,0.873,0.8722,0.8712,0.8711,0.8698,0.8693,0.8683,0.867,0.8653,0.8642,0.8626,0.8598,0.8596,0.8587,0.8585,0.8583,0.858,0.8567,0.8564,0.8601,0.8601,0.8601,0,0,0.8774,0.8765,0.8755,0.8733,0.8724,0.8708,0.8718,0.8699,0.8688,0.8689,0.8667,0.8659,0.8644,0.8619,0.8607,0.8611,0.857,0.858,0.8579,0.8577,0.8565,0.8562,0.8558,0.86,0.86,0.86,0,0,0.8745,0.8736,0.8717,0.8708,0.8695,0.8691,0.8686,0.8673,0.8668,0.8646,0.8648,0.8633,0.8604,0.8595,0.8586,0.8557,0.8559,0.8552,0.8539,0.8526,0.8524,0.8521,0.8512,0.8509,0.8549,0.8549,0.8549,0,0.8732,0.8709,0.8707,0.8689,0.8681,0.8684,0.8665,0.8656,0.8637,0.8631,0.8637,0.8603,0.8593,0.8566,0.856,0.8552,0.8547,0.8553,0.8524,0.8522,0.8519,0.8511,0.8507,0.8549,0.8549,0.8549,0.8549,0,0.8694,0.8678,0.8664,0.8649,0.8638,0.862,0.8616,0.8605,0.8605,0.8601,0.8579,0.8567,0.855,0.8544,0.8542,0.8518,0.8521,0.8525,0.8535,0.8515,0.8507,0.8504,0.8548,0.8548,0.8548,0.8548,0,0,0.8656,0.8642,0.8637,0.8631,0.8618,0.8605,0.8588,0.8573,0.8565,0.8553,0.8539,0.8516,0.8521,0.8511,0.8509,0.8498,0.8478,0.8504,0.8504,0.8501,0.8452,0.845,0.8446,0.848,0.8479,0.8478,0.8454,0,0.8626,0.8597,0.8596,0.8569,0.8555,0.856,0.8545,0.8535,0.8531,0.8519,0.8514,0.8498,0.8505,0.85,0.8489,0.8483,0.8468,0.8484,0.8467,0.8466,0.8471,0.8441,0.8438,0.8415,0.8451,0.845,0.845,0,0.8588,0.8577,0.8549,0.8541,0.8535,0.8522,0.8509,0.8497,0.8487,0.8485,0.8476,0.8476,0.846,0.847,0.8448,0.8459,0.8452,0.8448,0.8447,0.8445,0.8457,0.844,0.8408,0.8405,0.8444,0.8445,0.8445,0,0.8564,0.8543,0.8524,0.8519,0.8508,0.8499,0.8494,0.8485,0.8477,0.8466,0.8461,0.8448,0.844,0.843,0.8428,0.8435,0.8406,0.8415,0.8404,0.8404,0.8397,0.8398,0.8364,0.8392,0.8392,0.8392,0.8392,0,0.8532,0.8515,0.8514,0.8502,0.8484,0.8484,0.8466,0.8462,0.8454,0.8442,0.8444,0.8433,0.843,0.8418,0.8416,0.8399,0.8395,0.8393,0.8393,0.8393,0.8394,0.8389,0.839,0.8391,0.8391,0.8391,0.8391,0,0.8502,0.8501,0.8481,0.8474,0.8472,0.8459,0.8453,0.8442,0.8439,0.8424,0.8421,0.8416,0.8403,0.8399,0.8382,0.8381,0.8361,0.8362,0.8365,0.8365,0.8354,0.8356,0.8317,0.8313,0.8342,0.8342,0.8342,0,0.8482,0.847,0.8462,0.8455,0.8451,0.8439,0.8431,0.8431,0.8423,0.8413,0.8404,0.8391,0.8381,0.836,0.8355,0.8343,0.8344,0.8331,0.8342,0.8343,0.8345,0.8346,0.8345,0.8329,0.8328,0.8328,0.8328,0,0.8447,0.8448,0.8437,0.8428,0.8419,0.8411,0.8403,0.8397,0.8396,0.8387,0.8375,0.8367,0.8352,0.834,0.8328,0.8323,0.8326,0.8325,0.8322,0.8322,0.8325,0.8325,0.836,0.8326,0.8326,0.8326,0.8326,0.8326,0.8422,0.8412,0.8407,0.8396,0.8391,0.8384,0.8375,0.8372,0.8362,0.835,0.8351,0.8337,0.833,0.8315,0.831,0.8299,0.8303,0.8298,0.8297,0.8296,0.8296,0.8327,0.8297,0.8297,0.8297,0.8297,0.8297,0,0.8388,0.8385,0.8376,0.8366,0.8358,0.8363,0.8355,0.8348,0.8337,0.833,0.8321,0.8308,0.8297,0.8292,0.8281,0.8274,0.8275,0.8271,0.8272,0.8271,0.8292,0.8297,0.8271,0.8271,0.8271,0.8271,0.8271,0.8271,0.837,0.8354,0.8355,0.8337,0.8334,0.8322,0.8318,0.8312,0.8307,0.8293,0.8284,0.8282,0.8277,0.8266,0.8257,0.8255,0.8252,0.8248,0.8247,0.8267,0.8269,0.8272,0.8276,0.8247,0.8247,0.8227,0.8227,0.8227]}]]